Regional Weather Roundup
Issued by NWS

Home | Current Version | Previous Version | Text Only | Print | Product List | Glossary Off
Versions: 1 2 3 4 5 6 7 8 9 10 11 12 13 14 15 16 17 18 19 20 21 22 23 24 25 26 27 28 29 30 31 32 33 34 35 36 37 38 39 40 41 42 43 44 45 46 47 48 49 50

000
ASUS43 KLSX 160307
RWRMO

WEATHER SUMMARY FOR MISSOURI
NATIONAL WEATHER SERVICE SPRINGFIELD MO
900 PM CST MON JAN 15 2018

NOTE: "FAIR" INDICATES FEW OR NO CLOUDS BELOW 12,000 FEET WITH NO
       SIGNIFICANT WEATHER AND/OR OBSTRUCTIONS TO VISIBILITY.
       CURRENT SKY AND/OR WEATHER CONDITIONS ARE NOT AVAILABLE FOR
       CHILLICOTHE AND FARMINGTON.

MOZ001>031-035>038-043-044-053-054-160400-
...NORTHERN AND WESTERN MISSOURI...

CITY           SKY/WX    TMP DP  RH WIND       PRES   REMARKS
KANSAS CTY INT CLEAR      1  -6  72 NW9       30.67R WCI -14
KANSAS C DTWN  CLEAR      5  -5  63 NW7       30.69R WCI  -7
LEE`S SUMMIT   CLEAR      3  -5  69 NW12      30.66R WCI -13
ST JOSEPH        N/A    N/A N/A N/A MISG      30.71R
CHILLICOTHE      N/A      2  -9  60 NW9G17    30.67R WCI -13
KIRKSVILLE     CLEAR      0  -7  72 NW13      30.58R WCI -18

$$
MOZ066>068-077>081-088>096-101>105-160400-
...SOUTHWEST MISSOURI...

CITY           SKY/WX    TMP DP  RH WIND       PRES   REMARKS
SPRINGFIELD    CLOUDY    10   1  67 N23       30.58R WCI -10
JOPLIN         PTCLDY    10   1  67 NW13      30.68R WCI  -5
BRANSON        CLOUDY    10   3  72 NW9       30.58R WCI  -2

$$
MOZ032>034-039>042-045>050-055>058-069>072-160400-
...CENTRAL MISSOURI...

CITY           SKY/WX    TMP DP  RH WIND       PRES   REMARKS
COLUMBIA       CLEAR      5  -4  66 NW15G25   30.58R WCI -13
JEFFERSON CITY CLEAR      8  -3  61 NW14G22   30.63R WCI  -8
ROLLA          CLOUDY     7  -1  70 NW12      30.56R WCI  -8
SEDALIA        CLEAR      5  -2  72 NW10      30.63R WCI -10
WARRENSBURG    CLEAR      5  -6  61 NW10      30.67R WCI -10
OSAGE BEACH    CLOUDY     8  -1  66 NW12      30.64R WCI  -7

$$
MOZ051-052-059>065-160400-
...EAST CENTRAL MISSOURI...

CITY           SKY/WX    TMP DP  RH WIND       PRES   REMARKS
ST LOUIS INTL  MOCLDY     9  -1  64 NW12      30.56R WCI  -6
SPIRIT OF STL  MOCLDY    10  -1  61 W12       30.58R WCI  -5
ST CHARLES     CLEAR      9  -2  61 NW15      30.57R WCI  -8

$$
MOZ072>076-082>087-097>100-106>115-160400-
...SOUTH CENTRAL AND SOUTHEAST MISSOURI...

CITY           SKY/WX    TMP DP  RH WIND       PRES   REMARKS
CAPE GIRARDEAU CLOUDY    19   8  62 N18G28    30.53R WCI   4
FARMINGTON     CLOUDY    12   1  61 NW12      30.54R WCI  -2
POPLAR BLUFF   CLOUDY    20   8  60 N16G26    30.54R WCI   6
WEST PLAINS    CLOUDY    13   1  59 N13G24    30.53R WCI  -2

$$


USA.gov is the U.S. government's official web portal to all federal, state and local government web resources and services.